This demonstration page uses our WeatherBlox Daily Observations layout. Learn more.

38.89511, -77.03637

Hourly Observations for September 12, 2017

Temp ( °F °C ) Dew Point ( °F °C ) Humidity (%) Winds ( mph kmh ) Pressure ( in mb ) Visibility ( mi km ) Precip ( " mm )
12:52 am 00:52 Cloudy 65 18.3 57 13.9 76 76 Calm 30.12 1020 10 16.09344 0 0
1:52 am 01:52 Cloudy 64 17.8 56 13.3 75 75 N 5 7 30.12 1020 10 16.09344 0 0
2:52 am 02:52 Cloudy 64 17.8 57 13.9 78 78 NE 7 11 30.09 1019 10 16.09344 0 0
3:52 am 03:52 Cloudy 64 17.8 58 14.4 81 81 Calm 30.06 1018 10 16.09344 0 0
4:52 am 04:52 Cloudy 63 17.2 57 13.9 81 81 N 6 9 30.06 1018 10 16.09344 0 0
5:52 am 05:52 Cloudy 64 17.8 56 13.3 75 75 Calm 30.06 1018 10 16.09344 0 0
6:52 am 06:52 Cloudy 64 17.8 58 14.4 81 81 Calm 30.06 1018 10 16.09344 0 0
7:52 am 07:52 Cloudy 64 17.8 58 14.4 81 81 N 6 9 30.06 1018 10 16.09344 0.001 0.001
8:52 am 08:52 Cloudy 66 18.9 60 15.6 81 81 NE 3 6 30.03 1017 10 16.09344 0 0
9:52 am 09:52 Cloudy 68 20 59 15 73 73 ENE 6 9 30.03 1017 10 16.09344 0 0
10:52 am 10:52 Cloudy 71 21.7 58 14.4 63 63 ENE 3 6 30.06 1018 10 16.09344 0 0
11:52 am 11:52 Cloudy 73 22.8 55 12.8 53 53 Calm 30.03 1017 10 16.09344 0 0
12:52 pm 12:52 Cloudy 76 24.4 54 12.2 47 47 Calm 30.03 1017 10 16.09344 0 0
1:52 pm 13:52 Cloudy 77 25 50 10 39 39 S 3 6 30 1016 10 16.09344 0 0
2:52 pm 14:52 Cloudy 78 25.6 57 13.9 48 48 ENE 5 7 29.97 1015 10 16.09344 0 0
3:52 pm 15:52 Cloudy 78 25.6 56 13.3 47 47 NNE 3 6 29.94 1014 10 16.09344 0 0
4:52 pm 16:52 Mostly Cloudy 78 25.6 59 15 52 52 ENE 6 9 29.94 1014 10 16.09344 0 0
5:52 pm 17:52 Mostly Cloudy 76 24.4 59 15 56 56 ESE 8 13 29.94 1014 10 16.09344 0 0
6:52 pm 18:52 Mostly Cloudy 73 22.8 58 14.4 59 59 ESE 9 15 29.94 1014 10 16.09344 0 0
7:52 pm 19:52 Mostly Cloudy 72 22.2 53 11.7 52 52 ESE 8 13 29.94 1014 10 16.09344 0 0
8:52 pm 20:52 Mostly Cloudy 71 21.7 57 13.9 61 61 Calm 29.94 1014 10 16.09344 0 0
9:52 pm 21:52 Mostly Cloudy 71 21.7 56 13.3 59 59 ENE 3 6 29.94 1014 10 16.09344 0 0
10:52 pm 22:52 Cloudy 71 21.7 57 13.9 61 61 Calm 29.94 1014 10 16.09344 0 0
11:52 pm 23:52 Mostly Cloudy 70 21.1 60 15.6 71 71 Calm 29.94 1014 10 16.09344 0 0

Powered by AerisWeather